OpenBCM V1.08-5-g2f4a (Linux)

Packet Radio Mailbox

IZ3LSV

[San Dona' di P. JN]

 Login: GUEST





  
CX2SA  > SATDIG   14.02.12 22:04l 159 Lines 5111 Bytes #999 (0) @ WW
BID : AMSATBB775
Read: GUEST
Subj: AMSAT-BB-digest V7 75
Path: IZ3LSV<IW0QNL<IK6ZDE<VE3UIL<CX2SA
Sent: 120214/2002Z @:CX2SA.SAL.URY.SA #:50962 [Salto] FBB7.00e $:AMSATBB775
From: CX2SA@CX2SA.SAL.URY.SA
To  : SATDIG@WW

Today's Topics:

   1. Re: Norad TLE's Elements for VEGA Launch ! (Mike Rupprecht)
   2. K7UGA unable to work 1943 UTC SO-50 pass today
      (Patrick STODDARD (WD9EWK/VA7EWK))


----------------------------------------------------------------------

Message: 1
Date: Tue, 14 Feb 2012 19:07:14 +0100
From: "Mike Rupprecht" <mail@xxxxxxxxxxxxxx.xx>
To: "'Graham Shirville'" <g.shirville@xxxxxxxxxx.xxx>,	"'Andy
Kellner'" <hawat1@xxxxx.xxx>
Cc: amsatvk@xxxxxxxxxxx.xxx.xxx 'AMSAT BB' <amsat-bb@xxxxx.xxx>
Subject: [amsat-bb] Re: Norad TLE's Elements for VEGA Launch !
Message-ID: <004801cceb43$7e221200$7a663600$@xx>
Content-Type: text/plain;	charset="Windows-1252"

Hi Graham,

I agree with you.

Object A and B is far away. We can see two clusters and ALMASat. One cubesat
is missing - but I believe they are still too close to identify.
Or two cubesats stuck together ;-)

But it's too early for such kind of speculation. Let's wait a week or two
...

73 Mike
DK3WN


-----Urspr?ngliche Nachricht-----
Von: amsat-bb-bounces@xxxxx.xxx [mailto:amsat-bb-bounces@xxxxx.xxxx Im
Auftrag von Graham Shirville
Gesendet: Dienstag, 14. Februar 2012 15:26
An: Andy Kellner
Cc: amsatvk@xxxxxxxxxxx.xxx.xxx AMSAT BB
Betreff: [amsat-bb] Re: Norad TLE's Elements for VEGA Launch !

Hi Andy,

Thanks for these..I am intrigued..there should be 10 objects in total -
LARES is in a circular 1450km orbit and does not appear to be listed yet.
Object A I suspect is the final stage/launch adaptor.

cheers

Graham
G3VZV


-----Original Message-----
From: Andy Kellner
Sent: Tuesday, February 14, 2012 1:50 PM
To: amsat-bb@xxxxx.xxx ;
Subject: [amsat-bb] Norad TLE's Elements for VEGA Launch !

No names yet, but looking it at I would say 2012-006A is LARES and B is
ALMASAT.

C-J are the cubesats IMHO. Take your pick.


2012-006A
1 38077U 12006A   12045.34170990  .00075337  33376-5  11441-2 0    63
2 38077  69.5095 236.8571 0799714  45.5517 320.7952 14.12063853   121
2012-006B
1 38078U 12006B   12045.34630730  .00062068  00000-0  18138-2 0    45
2 38078  69.4882 236.7669 0775634  43.1211 322.7631 14.04418081   137
2012-006C
1 38079U 12006C   12045.34563505  .00003646  00000-0  10000-3 0    50
2 38079  69.4892 236.7638 0781145  43.1829 322.8098 14.05512214   125
2012-006D
1 38080U 12006D   12045.34576499 -.00000171  00000-0  00000+0 0    43
2 38080  69.4894 236.7650 0779813  43.1749 322.8467 14.05390632   121
2012-006E
1 38081U 12006E   12045.34576237 -.00000170  00000-0  00000+0 0    43
2 38081  69.4853 236.7588 0779430  43.1167 322.8527 14.05284925   120
2012-006F
1 38082U 12006F   12045.34582563 -.00000170  00000-0  00000+0 0    32
2 38082  69.4894 236.7668 0779831  43.1118 322.8601 14.05192436   124
2012-006G
1 38083U 12006G   12045.34579010 -.00000171  00000-0  00000+0 0    48
2 38083  69.4868 236.7618 0780170  43.1324 322.8589 14.05257909   120
2012-006H
1 38084U 12006H   12044.91874586 -.00000170  00000-0  00000+0 0    24
2 38084  69.4837 237.7229 0780017  43.6486 322.3757 14.05172992    63
2012-006J
1 38085U 12006J   12044.91875341 -.00000172  00000-0  00000+0 0    27
2 38085  69.4881 237.7235 0782167  43.6065 322.3957 14.05159457    64

Cheers,
Andreas - VK4HHH
_______________________________________________
Sent via AMSAT-BB@xxxxx.xxx. Opinions expressed are those of the author.
Not an AMSAT-NA member? Join now to support the amateur satellite program!
Subscription settings: http://amsat.org/mailman/listinfo/amsat-bb

_______________________________________________
Sent via AMSAT-BB@xxxxx.xxx. Opinions expressed are those of the author.
Not an AMSAT-NA member? Join now to support the amateur satellite program!
Subscription settings: http://amsat.org/mailman/listinfo/amsat-bb




------------------------------

Message: 2
Date: Tue, 14 Feb 2012 11:29:12 -0800 (PST)
From: "Patrick STODDARD \(WD9EWK/VA7EWK\)" <amsat-bb@xxxxxx.xxx>
To: amsat-bb@xxxxx.xxx
Subject: [amsat-bb] K7UGA unable to work 1943 UTC SO-50 pass today
Message-ID:
<1329247752.72913.YahooMailClassic@xxxxxxxx.xxxx.xxx.xxxxx.xxx>
Content-Type: text/plain; charset=us-ascii

Hi!

Due to work-related matters, I will not be able to get out and work
the 1943 UTC SO-50 pass as K7UGA that I planned to do.  I apologize
if you were hoping to hear K7UGA on that pass.  At this point, there
are no changes to my evening plans for K7UGA on the VO-52 passes and
an SO-50 pass at 0420-0433 UTC tonight.

I'm still planning to work a midday pass tomorrow, at 1832-1845 UTC
on SO-50.  I'm hoping there are no other complications at the office
that would keep me from going out.  Otherwise, my daytime operating
will start on Thursday before I head out to the Yuma hamfest.

73!





Patrick WD9EWK/VA7EWK
http://www.wd9ewk.net/




------------------------------

_______________________________________________
Sent via amsat-bb@xxxxx.xxx. Opinions expressed are those of the author.
Not an AMSAT member? Join now to support the amateur satellite program!
http://amsat.org/mailman/listinfo/amsat-bb


End of AMSAT-BB Digest, Vol 7, Issue 75
***************************************


Read previous mail | Read next mail


 01.07.2025 22:49:49lGo back Go up